Flag for France Weather past 2 weeks in Ajaccio, Corsica, France

Now
45 °F

Clear.


Feels Like: 40 °F
Forecast: 44 / 58 °F
Wind: 8 mph from Northeast

Location: Ajaccio Airport

Current Time: Dec 22, 2014 at 7:52:08 AM

Latest Report: Dec 22, 2014 at 7:30 AM


Visibility: 10 mi

Pressure: 30.45 "Hg

Humidity: 87%

Dew point: 41 °F

Location of AjaccioLocation

Historic Weather in Ajaccio — Graph

°F

Ajaccio temperature yesterday

Maximum temperature yesterday: 61 °F (at 11:30 AM)
Minimum temperature yesterday: 43 °F (at 7:00 AM)
Average temperature yesterday: 52 °F

Past Weeks' High & Low Weather Summary

 TemperatureHumidityPressure
High64 °F (Dec 11, 12:30 PM)100% (Dec 9, 6:30 PM)30.45 "Hg (Dec 9, 6:30 PM)
Low37 °F (Dec 10, 2:30 AM)39% (Dec 10, 3:30 PM)29.71 "Hg (Dec 9, 6:30 AM)
Average51 °F80%30.06 "Hg
* Reported Dec 7 6:00 AM — Dec 22 6:30 AM, Ajaccio, Weather by CustomWeather, © 2014

Note: Actual official high and low records may vary slightly from our data, if they occured in-between our weather recording intervals... More about our weather records

Advertising

Ajaccio weather history for previous 24 hours

 ConditionsComfort  
Time TempWeatherWind HumidityBarometerVisibility
6:30 AM
Dec 22
45 °FClear.8 mph87%30.45 "Hg10 mi
6:00 AM45 °FPassing clouds.8 mph87%30.45 "HgN/A
5:30 AM45 °FOvercast.9 mph87%30.45 "HgN/A
4:30 AM45 °FPassing clouds.8 mph87%30.45 "HgN/A
4:00 AM45 °FPassing clouds.8 mph87%30.45 "HgN/A
3:30 AM45 °FOvercast.7 mph93%30.45 "HgN/A
3:00 AM45 °FPassing clouds.9 mph93%30.45 "HgN/A
2:30 AM46 °FClear.7 mph87%30.45 "HgN/A
2:00 AM46 °FClear.7 mph87%30.45 "HgN/A
1:30 AM46 °FClear.7 mph87%30.45 "HgN/A
1:00 AM48 °FPassing clouds.6 mph87%30.45 "HgN/A
12:30 AM48 °FPassing clouds.6 mph87%30.45 "HgN/A
12:00 AM50 °FPassing clouds.5 mph82%30.45 "HgN/A
11:30 PM
Dec 21
52 °FPassing clouds.6 mph82%30.45 "HgN/A
10:30 PM54 °FOvercast.5 mph82%30.42 "HgN/A
10:00 PM54 °FOvercast.5 mph88%30.42 "HgN/A
9:30 PM54 °FOvercast.3 mph88%30.42 "HgN/A
9:00 PM54 °FOvercast.3 mph88%30.42 "HgN/A
8:30 PM54 °FOvercast.5 mph88%30.42 "HgN/A
8:00 PM54 °FOvercast.3 mph88%30.39 "HgN/A
7:30 PM55 °FOvercast.1 mph82%30.39 "HgN/A
7:00 PM57 °FOvercast.1 mph77%30.39 "HgN/A
6:30 PM57 °FOvercast.No wind77%30.36 "HgN/A
6:00 PM57 °FPassing clouds.2 mph77%30.36 "HgN/A
5:30 PM57 °FPassing clouds.3 mph72%30.36 "HgN/A
5:00 PM59 °FPassing clouds.7 mph68%30.33 "HgN/A
4:30 PM59 °FPartly sunny.8 mph72%30.33 "HgN/A
4:00 PM59 °FPartly sunny.8 mph72%30.33 "HgN/A
3:30 PM59 °FScattered clouds.7 mph72%30.30 "HgN/A
3:00 PM59 °FPassing clouds.8 mph72%30.30 "HgN/A
2:30 PM61 °FPassing clouds.9 mph68%30.30 "HgN/A
2:00 PM61 °FPassing clouds.8 mph68%30.30 "HgN/A
1:30 PM61 °FPassing clouds.12 mph68%30.27 "HgN/A
1:00 PM61 °FPassing clouds.10 mph68%30.27 "HgN/A
12:00 PM61 °FPassing clouds.8 mph63%30.30 "HgN/A
11:30 AM61 °FPassing clouds.3 mph68%30.30 "HgN/A
11:00 AM57 °FPassing clouds.2 mph72%30.30 "HgN/A
10:30 AM54 °FPassing clouds.2 mph77%30.30 "HgN/A
10:00 AM52 °FPassing clouds.5 mph77%30.27 "HgN/A
9:30 AM48 °FPassing clouds.7 mph82%30.27 "HgN/A
9:00 AM46 °FPassing clouds.7 mph82%30.24 "HgN/A
8:30 AM45 °FPassing clouds.6 mph87%30.24 "HgN/A
8:00 AM45 °FPassing clouds.7 mph87%30.24 "HgN/A
7:30 AM43 °FPassing clouds.6 mph93%30.21 "HgN/A
7:00 AM43 °FClear.7 mph93%30.21 "Hg10 mi
Weather by CustomWeather, © 2014

See weather overviewHow to use our weather pages